Ellensburg, WA
on Sunday, November 18, 2012

Sunday
Previous Day Next Day
Daily Summary
 ActualAverage (KYKM)Record (KYKM)
Temperature
Mean Temperature °F 36°F  
Max Temperature 46°F 47°F 67°F (2003)
Min Temperature 28°F 26°F 9°F (1955)
Degree Days
Heating Degree Days 28 29  
Month to date heating degree days 457  
Since 1 July heating degree days 1161  
Cooling Degree Days 0 0  
Month to date cooling degree days 0  
Year to date cooling degree days 472  
Moisture
Dew Point 33°F   
Average Humidity 76    
Maximum Humidity 86    
Minimum Humidity 61    
Precipitation
Precipitation 0.15 in 0.04 in 0.73 in (2007)
Month to date precipitation 0.58  
Year to date precipitation 6.25  
Snow
Snow 0.00 in 0.20 in 4.50 in (1978)
Month to date snowfall 1.2  
Year to date snowfall 9.9  
Since 1 July snowfall 1.3  
Snow Depth in   
Wind
Wind Speed 6 mph   
Max Wind Speed 13 mph   
Max Gust Speed mph   
Visibility 10 miles   
Events Rain   

Key: T is trace of precipitation, MM is missing value
Source: NWS Daily Summary
Time(PST)TemperatureDew PointHumidity Pressure Visibility Wind DirectionWind SpeedGust SpeedPrecipitationEvents Conditions
12:53 AM 33.1°F 28.9°F 85% 29.74 in 10.0 miles NNE 6.9 mph - N/A   Scattered Clouds
1:53 AM 34.0°F 28.9°F 82% 29.76 in 10.0 miles Calm Calm - N/A   Overcast
2:53 AM 32.0°F 27.0°F 82% 29.78 in 10.0 miles Calm Calm - N/A   Clear
3:53 AM 30.0°F 26.1°F 85% 29.81 in 10.0 miles East 4.6 mph - N/A   Clear
4:53 AM 30.0°F 26.1°F 85% 29.82 in 10.0 miles Variable 3.5 mph - N/A   Clear
5:53 AM 28.9°F 24.1°F 82% 29.83 in 10.0 miles NNE 3.5 mph - N/A   Scattered Clouds
6:53 AM 34.0°F 28.9°F 82% 29.84 in 10.0 miles East 4.6 mph - N/A   Clear
7:53 AM 30.9°F 27.0°F 85% 29.86 in 10.0 miles Calm Calm - N/A   Scattered Clouds
8:21 AM 35.6°F 30.2°F 81% 29.82 in 10.0 miles East 6.9 mph - N/A   Overcast
8:53 AM 35.1°F 30.0°F 82% 29.85 in 10.0 miles East 5.8 mph - N/A   Overcast
9:53 AM 42.1°F 34.0°F 73% 29.84 in 10.0 miles ENE 8.1 mph - N/A   Overcast
10:53 AM 43.0°F 36.0°F 76% 29.85 in 10.0 miles East 5.8 mph - N/A   Overcast
11:53 AM 46.9°F 36.0°F 66% 29.83 in 10.0 miles SE 6.9 mph - N/A   Overcast
12:53 PM 46.0°F 35.1°F 66% 29.82 in 10.0 miles East 6.9 mph - N/A   Overcast
1:53 PM 46.0°F 34.0°F 63% 29.81 in 10.0 miles East 3.5 mph - N/A   Overcast
2:53 PM 46.0°F 35.1°F 66% 29.80 in 10.0 miles East 9.2 mph - N/A   Overcast
3:28 PM 46.4°F 33.8°F 62% 29.77 in 10.0 miles SSE 11.5 mph - N/A   Overcast
3:53 PM 46.0°F 34.0°F 63% 29.80 in 10.0 miles SE 5.8 mph - N/A   Mostly Cloudy
4:53 PM 46.9°F 34.0°F 61% 29.78 in 10.0 miles ESE 9.2 mph - N/A   Overcast
5:53 PM 46.0°F 35.1°F 66% 29.77 in 10.0 miles East 8.1 mph - N/A   Overcast
6:53 PM 44.1°F 37.0°F 76% 29.75 in 10.0 miles ESE 12.7 mph - 0.00 in Rain Light Rain
7:08 PM 44.6°F 37.4°F 76% 29.72 in 10.0 miles East 10.4 mph - 0.01 in Rain Light Rain
7:53 PM 44.1°F 37.9°F 79% 29.75 in 9.0 miles ESE 6.9 mph - 0.05 in Rain Rain
8:53 PM 43.0°F 39.0°F 86% 29.75 in 7.0 miles East 9.2 mph - 0.04 in Rain Rain
9:53 PM 43.0°F 39.0°F 86% 29.73 in 10.0 miles East 9.2 mph - 0.01 in Rain Light Rain
10:13 PM 44.6°F 37.4°F 76% 29.71 in 10.0 miles ESE 9.2 mph - 0.00 in Rain Light Rain
10:53 PM 44.1°F 37.9°F 79% 29.71 in 10.0 miles East 9.2 mph - 0.01 in Rain Light Rain
11:53 PM 44.1°F 37.9°F 79% 29.72 in 9.0 miles SE 5.8 mph - 0.04 in Rain Light Rain
Moon Phase
Nov. 18 Nov. 20 Nov. 28 Dec. 06 Dec. 13
Sunrise:07:10 AM (PST) Moon Rise:11:36 AM (PST)11/18
Sunset:04:23 PM (PST) Moon Set:09:55 PM (PST)11/18

Copyright © 2014 The Weather Underground, Inc.